Terminal Aerodrome Forecast
Issued by NWS

Home | Current Version | Previous Version | Text Only | Print | Product List | Glossary On
Versions: 1 2 3 4 5 6 7 8 9 10 11 12 13 14 15 16 17
000
FTUS41 KGYX 260528
TAFRKD
TAF
KRKD 260528Z 2606/2706 30008KT P6SM BKN250
     FM261400 03008KT P6SM SCT120 OVC200
     FM270000 04012G20KT P6SM BKN060 OVC100
      AMD LTD TO CLD VIS AND WIND=

USA.gov is the U.S. government's official web portal to all federal, state and local government web resources and services.